Theta_e
332 325 318 311 300 298 293 296 301 303 304 309 313 312 311 313 309 303 326 334 338 340 343 346 348 348 347 347 345 344 343 342 342 342 344 342 340 340 338 338 338 336 337 337 337 337 338 337 336
325 323 314 305 296 292 293 299 302 305 308 316 315 314 312 308 321 323 327 335 339 340 342 345 345 348 347 346 344 344 343 342 341 340 344 341 339 339 337 337 337 337 337 337 337 337 337 336 337
322 318 308 300 292 292 294 300 304 307 309 309 311 316 312 313 320 325 330 336 339 338 342 343 345 347 347 345 344 343 342 342 341 341 342 341 339 337 337 335 336 336 336 336 336 336 336 336 336
316 313 308 298 293 295 298 303 307 306 309 310 312 309 315 324 323 327 335 336 335 337 340 342 345 347 346 344 343 342 342 341 339 340 342 342 340 337 337 335 336 336 335 335 335 335 336 335 336
313 307 300 297 296 296 300 306 307 305 305 307 312 308 310 324 327 333 333 335 333 334 338 342 344 345 345 344 343 342 341 340 340 338 343 342 340 337 337 336 335 335 334 334 334 334 334 333 334
304 304 297 294 298 302 301 306 305 305 306 306 311 311 312 324 325 330 333 333 335 335 337 340 337 340 342 343 342 342 341 340 339 338 340 343 340 338 336 335 334 334 334 334 334 333 332 331 331
303 299 295 296 298 300 302 304 303 303 304 303 315 308 313 318 324 327 331 332 333 335 336 337 338 338 335 338 338 339 340 339 338 336 336 337 339 338 337 336 335 334 333 333 333 332 331 330 329
306 301 294 295 297 300 302 304 305 304 305 309 316 306 308 320 326 325 328 330 331 332 334 334 335 336 336 335 332 334 335 335 335 334 331 330 332 333 333 332 334 334 333 333 332 331 330 328 326
309 297 292 295 297 301 307 303 306 307 308 312 316 314 317 325 325 321 320 323 325 330 331 332 333 333 334 334 330 329 330 331 330 329 326 325 326 327 327 327 332 335 333 332 331 331 330 329 326
303 294 296 299 303 303 307 303 305 303 304 308 312 319 323 324 322 319 318 321 322 325 327 330 330 331 332 335 330 329 329 327 326 325 324 324 324 324 326 324 328 332 331 332 331 331 330 324 316
303 297 301 303 305 305 306 306 307 300 300 304 307 314 319 319 320 320 319 320 324 325 327 329 329 330 332 333 329 327 326 325 324 323 322 322 322 320 322 321 323 321 321 323 326 324 320 317 316
299 305 305 306 306 305 303 308 306 305 302 308 308 318 320 319 320 321 319 319 320 320 325 328 329 329 331 332 331 329 328 325 323 322 322 320 317 317 318 319 319 318 318 316 316 315 316 316 317
297 300 304 304 304 304 305 303 304 306 310 309 315 321 319 320 320 322 322 322 321 320 320 325 328 329 331 331 332 331 328 327 326 323 322 321 318 316 317 317 317 317 316 315 314 314 314 315 316
297 300 300 302 303 303 302 301 303 305 308 307 315 317 318 319 320 317 320 322 322 323 320 320 327 329 331 330 331 331 329 328 326 325 324 322 321 318 317 317 316 315 315 315 314 315 314 315 315
300 296 298 298 301 301 302 298 300 305 306 307 306 310 317 318 319 320 323 323 324 324 324 320 321 327 329 330 328 328 328 328 326 326 325 324 323 320 318 318 316 316 315 315 314 313 313 313 313
296 292 288 295 300 301 301 291 298 303 302 303 304 304 306 307 318 321 323 323 324 324 324 324 323 323 327 328 327 327 326 326 325 325 326 325 324 322 320 320 318 318 316 315 314 313 312 311 311
289 283 288 292 299 299 298 292 298 301 300 300 301 302 302 302 304 312 321 322 323 324 324 324 322 320 323 325 327 326 324 325 325 324 325 325 325 324 323 321 321 318 316 314 315 313 311 310 310
286 286 288 287 293 296 294 294 298 299 298 298 300 300 301 302 304 306 308 319 323 324 325 324 323 322 320 323 324 324 323 323 324 324 324 325 325 325 323 323 321 319 316 315 313 313 311 311 311
291 289 287 289 295 293 292 293 296 298 296 296 297 298 300 301 305 305 306 308 318 321 323 322 320 321 320 319 319 321 321 322 320 321 323 323 324 324 324 323 319 318 318 318 316 315 312 311 310
290 288 286 291 294 293 291 292 294 295 297 296 296 296 299 301 302 305 305 305 312 318 322 323 319 320 319 320 319 320 321 322 323 321 320 322 323 323 323 323 321 319 318 317 316 314 311 312 311
293 288 286 286 291 292 290 290 292 293 295 296 298 298 299 300 302 303 304 304 304 312 318 322 321 319 319 320 319 315 315 314 316 319 319 319 321 322 323 323 322 320 320 319 316 315 313 313 309
288 295 291 290 287 282 290 280 286 289 293 295 297 297 298 299 300 301 303 304 302 306 314 320 323 320 319 319 318 316 316 315 317 318 319 320 319 320 322 322 322 322 320 319 318 316 316 315 311
289 295 293 290 288 285 284 282 283 289 289 292 295 296 297 299 300 301 302 303 303 304 308 316 320 322 320 318 319 317 316 318 319 318 317 318 319 319 319 320 321 320 321 320 319 317 315 315 314
295 291 290 289 288 282 285 284 284 286 289 291 295 296 297 298 300 300 300 301 301 302 303 310 315 320 322 319 318 319 318 318 318 318 316 317 318 319 319 319 319 320 320 319 319 318 317 316 316
292 287 279 280 281 278 285 284 286 287 291 292 292 294 295 296 296 297 298 299 300 301 302 304 313 316 321 319 319 319 319 319 318 319 317 317 317 317 319 318 318 318 319 319 319 318 318 317 316
291 289 278 270 274 278 283 281 286 291 295 296 296 296 296 296 296 297 298 301 301 301 301 304 307 313 317 320 319 319 320 320 320 320 320 318 318 318 320 320 319 318 319 319 318 318 318 318 317
290 286 289 280 278 273 279 283 290 293 292 293 294 293 294 295 296 296 295 295 296 296 297 297 300 303 310 316 319 319 319 319 320 320 321 320 320 319 319 320 320 319 319 319 318 318 318 318 318
291 292 284 284 273 272 278 279 282 286 289 291 292 292 292 292 293 293 293 294 295 295 296 297 297 298 300 302 308 316 320 321 321 321 320 321 321 320 319 319 320 320 319 319 318 318 318 318 319
289 286 286 285 284 276 273 278 286 289 290 291 291 291 291 291 291 292 293 294 295 296 296 296 297 297 298 299 300 303 306 313 319 322 322 322 323 322 320 320 319 319 319 319 318 318 318 317 318
292 289 288 282 276 280 278 280 289 290 290 292 291 292 292 293 293 293 293 293 293 293 294 294 295 295 297 297 297 299 301 303 308 313 319 323 323 323 322 321 320 320 320 320 319 318 318 317 317
Wind_Speed
13 11 2 6 6 6 1 2 1 1 2 4 2 5 5 3 2 3 3 8 8 6 7 9 13 13 13 13 13 11 10 11 10 10 15 13 14 14 14 13 13 14 14 13 15 15 15 13 11
10 6 5 3 7 4 4 3 5 3 4 6 5 3 4 2 2 2 4 5 9 8 5 7 14 15 14 11 11 11 9 10 10 9 13 14 12 13 13 13 13 13 14 14 14 14 13 11 12
7 3 5 5 4 3 4 3 4 2 5 2 3 5 1 1 1 7 3 8 8 7 7 6 12 16 15 12 10 11 9 10 9 9 10 13 13 11 12 12 12 12 12 13 13 12 12 11 11
6 6 5 6 2 3 3 6 4 4 1 4 3 4 2 3 5 5 9 9 7 6 6 10 11 13 15 14 11 9 11 10 7 4 13 11 14 12 11 10 10 10 11 11 11 11 10 11 12
5 4 5 3 4 4 1 2 6 5 4 3 3 2 1 6 3 9 9 8 9 6 6 7 11 11 12 13 13 11 9 9 7 1 11 7 16 12 11 10 10 10 10 10 10 9 8 9 10
5 3 5 0 4 5 1 2 2 2 3 4 5 5 3 4 6 6 6 6 6 9 5 6 9 10 9 11 12 13 10 10 7 6 5 9 14 13 10 10 9 9 9 9 8 7 7 7 7
5 4 3 2 3 2 1 2 2 2 1 2 8 4 3 2 5 6 7 6 5 6 7 4 6 8 8 7 7 9 12 11 9 7 5 8 10 13 11 8 8 8 8 7 7 5 4 5 5
5 4 2 2 2 0 3 0 1 4 4 4 4 3 4 5 7 6 4 5 6 5 5 6 5 5 7 6 7 7 7 10 11 9 6 7 7 5 11 9 7 7 7 6 6 4 3 2 2
3 4 3 3 2 3 5 5 4 1 4 2 1 3 2 7 9 6 4 1 2 4 4 4 5 5 5 6 6 6 7 6 6 8 9 7 4 5 5 5 8 6 6 7 6 5 3 1 2
4 3 7 4 1 1 5 2 4 2 1 1 1 1 3 8 6 9 7 8 4 6 5 5 5 5 5 4 6 5 4 4 4 4 5 4 5 4 4 4 7 7 7 6 6 5 3 1 2
3 6 4 3 2 2 3 5 1 1 2 3 4 3 4 4 6 7 7 8 11 7 4 7 6 6 6 5 3 2 3 3 3 5 5 4 3 3 3 2 2 2 4 2 2 2 1 3 3
3 6 4 3 1 3 3 4 7 3 5 2 4 5 6 8 10 11 9 9 7 7 9 7 7 7 7 4 5 5 4 4 3 4 5 4 3 3 3 3 4 3 3 3 3 2 3 4 5
3 3 4 4 4 5 5 5 6 5 9 2 3 7 9 7 8 8 6 6 6 9 9 9 9 9 8 6 6 6 6 5 6 5 5 4 4 4 4 4 3 4 3 4 4 4 4 5 5
2 3 3 3 5 3 4 5 2 5 6 3 4 7 7 8 10 3 6 10 10 10 10 9 11 11 9 9 9 9 6 6 4 4 6 7 5 4 4 4 4 4 4 4 4 4 4 5 4
2 3 4 5 5 5 3 7 17 6 3 8 5 7 8 11 7 13 14 13 12 12 8 10 10 11 11 12 9 7 7 6 7 6 6 8 7 6 6 5 5 5 5 5 4 4 4 4 4
4 1 1 4 8 6 9 13 6 7 5 9 11 8 9 9 12 13 11 11 9 9 12 10 10 11 12 11 9 7 7 6 7 7 7 10 10 9 7 6 6 5 4 4 4 4 4 5 4
2 3 6 8 7 5 9 7 6 4 5 9 8 10 7 6 8 10 11 13 12 12 12 13 11 12 12 11 9 8 8 7 7 6 8 10 11 11 9 8 7 6 5 5 5 4 4 4 4
8 6 6 7 6 8 9 11 10 8 6 9 9 9 8 8 11 9 10 12 13 13 13 13 11 15 13 10 7 5 6 8 7 8 8 11 9 11 10 8 8 7 5 6 5 6 4 4 4
7 5 7 3 5 3 8 14 16 13 6 10 9 8 10 11 12 7 9 9 9 9 11 14 14 16 10 9 9 8 11 8 7 9 11 11 10 11 11 9 7 8 9 10 9 6 6 5 2
5 8 5 4 4 2 7 17 13 10 15 9 8 9 11 8 8 10 10 8 9 11 14 14 15 14 13 11 10 9 8 9 9 8 10 12 13 13 12 11 9 10 8 8 9 9 4 4 6
18 14 6 2 0 3 6 16 15 8 8 6 8 9 7 11 11 10 10 10 8 9 11 13 16 16 15 17 8 3 0 1 3 9 10 12 15 14 13 13 11 10 9 10 10 10 10 8 4
21 15 6 6 4 6 6 15 8 4 9 8 9 7 8 10 9 9 10 13 8 10 9 11 13 14 14 14 11 14 13 13 12 12 8 10 13 15 15 15 13 13 10 12 10 9 10 9 8
9 9 14 6 6 5 7 4 4 3 7 6 9 8 10 10 11 13 11 8 9 8 8 11 13 13 14 14 17 13 14 12 10 8 10 10 11 14 15 15 15 14 11 12 13 10 12 10 10
7 6 4 4 5 10 21 9 20 9 6 5 7 10 9 12 11 9 8 7 9 8 7 7 10 13 12 13 16 18 18 16 11 11 9 9 9 9 14 15 15 15 13 15 12 13 14 14 12
6 8 4 7 11 16 10 8 23 3 3 5 10 12 11 9 8 8 9 8 7 8 8 6 7 8 9 12 14 16 17 17 17 14 10 11 9 9 13 15 15 14 16 15 13 14 15 14 14
20 14 6 10 6 8 5 12 16 1 9 13 9 11 7 9 7 7 8 5 5 7 8 8 6 6 5 6 11 12 14 10 11 12 10 10 10 11 12 13 15 17 16 15 14 12 12 15 14
12 20 10 5 2 3 6 8 9 9 8 8 8 7 8 5 2 8 8 5 5 7 8 7 8 8 7 6 5 7 8 11 12 14 13 10 12 10 12 14 14 16 16 16 15 12 14 14 14
13 10 10 9 9 10 5 5 11 2 7 3 4 5 7 7 7 6 6 6 4 5 5 7 7 6 6 7 6 5 6 8 11 13 15 15 14 14 14 14 14 14 15 16 16 14 15 15 13
8 10 6 3 7 7 3 9 8 10 8 6 6 7 6 7 6 6 6 7 8 9 9 7 9 8 7 7 7 7 7 7 9 11 13 15 15 14 14 14 14 16 16 16 16 17 16 16 16
23 23 23 9 11 7 2 11 2 7 7 10 8 7 5 5 4 5 6 7 8 8 9 9 10 10 9 7 7 9 9 8 7 8 11 13 14 13 14 14 15 15 15 14 16 17 15 17 17
Wind_Direction
325 320 72 42 53 66 324 254 270 120 42 332 43 119 144 72 155 197 317 163 125 142 148 140 135 131 130 131 122 126 127 121 115 110 118 108 104 102 103 101 108 109 107 104 109 105 92 82 65
320 332 39 69 82 69 278 266 179 208 142 117 71 59 44 110 127 146 110 171 141 141 136 138 136 136 133 130 130 131 128 128 118 113 120 111 108 109 111 113 116 112 107 108 110 108 97 75 62
336 35 69 79 103 159 185 212 209 132 154 186 77 62 24 206 15 166 185 143 140 139 136 143 144 141 142 140 136 135 131 131 126 135 110 118 115 114 118 120 117 115 116 113 113 110 100 81 69
357 5 37 71 57 243 209 185 196 145 23 72 122 79 322 300 163 204 141 139 128 138 142 150 151 149 146 144 144 144 138 135 141 127 125 125 121 123 114 121 112 116 115 119 118 115 105 87 81
24 51 40 72 307 297 315 200 173 164 158 137 145 210 241 331 53 134 141 142 141 141 142 155 151 156 154 151 150 150 140 141 136 161 131 144 131 129 129 126 130 125 127 125 119 120 111 97 92
27 83 56 19 313 310 42 140 284 179 171 148 85 131 240 326 132 155 136 146 155 144 150 155 157 154 162 163 157 148 148 142 136 169 108 135 135 132 133 136 135 139 136 130 126 124 114 103 95
97 77 180 199 279 320 30 124 205 173 160 237 152 129 275 289 162 150 143 136 137 142 144 155 161 162 162 168 156 152 147 149 145 138 121 144 141 137 135 141 151 151 142 141 140 134 125 115 100
101 89 125 248 270 354 331 49 144 163 205 116 162 198 255 215 143 122 116 144 142 155 162 161 165 173 160 164 166 162 160 156 155 132 118 102 101 118 143 151 161 156 153 160 153 153 162 122 88
113 61 177 229 146 296 346 12 351 306 122 80 359 156 301 147 123 116 107 72 147 171 178 175 171 179 182 159 176 170 163 160 152 142 135 116 135 140 138 152 162 159 166 175 178 183 192 223 330
96 127 216 222 168 36 328 24 305 359 79 70 314 338 30 125 151 155 169 187 209 203 187 186 186 184 173 189 165 168 168 168 172 168 162 154 158 164 161 166 164 171 181 186 196 206 216 277 300
186 177 217 257 269 61 331 318 337 128 252 215 222 207 150 153 170 186 195 191 200 199 206 190 184 182 185 187 172 184 160 170 179 185 181 177 168 169 177 179 181 188 200 228 230 253 229 244 257
193 215 200 210 199 353 315 326 314 203 230 188 272 183 169 179 196 202 203 197 186 197 202 196 192 184 192 186 190 186 188 175 177 198 188 172 176 192 188 188 192 195 193 208 220 226 246 258 261
218 238 204 259 281 254 283 257 236 261 263 310 79 151 190 200 219 233 223 213 197 210 204 204 189 193 192 190 201 198 199 197 193 183 191 182 187 190 185 205 198 204 196 202 218 226 236 247 254
231 200 281 306 305 237 235 263 203 255 263 212 145 193 201 215 222 239 228 226 213 214 214 206 201 195 192 196 198 207 203 193 197 206 199 195 190 194 200 205 212 213 201 208 210 215 226 241 244
265 317 310 218 216 249 174 279 241 186 287 288 230 226 220 224 199 226 229 230 222 224 211 211 208 201 197 200 199 195 199 192 189 197 203 200 199 200 198 203 212 215 201 208 217 238 244 251 253
152 123 235 267 183 247 133 260 263 243 204 253 268 239 230 240 226 232 231 232 221 224 217 214 208 207 210 204 200 202 193 193 199 202 199 200 201 196 201 208 216 210 199 200 200 209 231 240 237
333 178 220 291 200 173 193 252 251 239 230 254 256 269 256 248 262 243 231 228 224 220 224 219 206 207 209 216 208 203 192 200 205 207 213 211 204 202 205 211 215 193 195 200 210 222 202 220 243
186 186 226 209 222 209 229 248 263 266 265 248 251 263 279 271 249 239 242 229 226 218 216 214 212 216 205 206 213 213 205 207 204 212 215 219 217 208 207 214 209 191 196 209 200 213 205 205 224
160 193 196 221 245 192 236 257 258 272 252 254 247 247 250 259 263 251 247 239 220 217 209 214 208 216 200 201 206 217 223 220 224 211 212 209 207 215 217 220 215 203 206 213 205 201 204 235 197
197 211 214 270 265 171 294 273 264 258 261 231 222 238 236 243 260 273 251 236 219 218 215 219 219 216 207 206 212 214 207 225 226 218 216 200 209 214 214 217 213 215 223 219 207 197 201 211 176
222 214 177 170 326 277 23 288 267 243 258 231 227 224 231 231 237 245 259 249 230 229 222 219 219 218 213 214 206 169 124 202 209 226 222 216 209 208 214 213 216 215 215 227 219 204 205 220 198
222 221 143 172 118 233 145 270 215 226 240 240 229 213 230 240 249 249 258 271 240 238 240 233 225 216 214 208 203 206 212 219 226 230 228 228 217 214 211 214 216 216 213 223 217 212 214 212 218
222 157 200 182 220 34 242 269 273 221 240 235 249 225 234 247 244 250 252 257 275 249 224 228 231 224 219 204 205 207 217 227 233 224 227 214 222 223 218 215 215 219 219 222 223 210 204 211 222
130 81 85 146 170 232 235 191 271 222 201 215 248 253 246 243 257 266 276 275 272 278 257 237 228 228 219 210 209 213 218 222 225 223 220 224 217 219 224 223 219 223 221 221 216 215 208 213 218
168 124 161 209 208 231 183 174 243 265 331 214 257 249 245 257 267 274 280 293 304 318 314 307 258 245 227 213 217 221 225 229 230 230 222 224 227 220 223 221 222 221 225 223 219 214 215 214 217
195 191 181 204 196 235 148 223 235 153 227 242 253 264 261 255 257 268 282 326 5 5 6 4 342 297 277 235 228 230 235 236 239 240 240 238 233 230 228 222 220 226 225 221 220 221 222 220 220
187 208 197 98 123 73 211 284 300 257 246 248 266 259 272 297 80 50 40 28 17 27 21 10 4 359 349 308 274 243 238 239 243 244 243 240 240 234 226 224 223 225 224 222 218 222 223 225 226
177 146 189 203 205 226 245 250 232 246 246 254 268 129 66 67 48 32 23 15 17 33 13 14 13 6 348 345 336 303 273 249 246 248 249 245 245 237 231 227 222 222 222 223 218 224 225 222 224
164 193 207 181 192 200 229 248 202 222 216 176 167 95 93 91 70 44 25 17 11 20 23 16 15 2 357 352 333 324 306 282 279 266 256 251 250 242 236 231 226 224 221 220 223 226 224 223 225
202 205 198 196 222 223 202 245 220 231 198 154 137 123 116 91 75 63 45 30 27 20 17 10 9 6 352 339 333 324 307 298 287 275 272 269 253 243 235 230 231 232 229 224 222 227 224 224 226